Regional Weather Roundup
Issued by NWS Little Rock, AR

Home | Current Version | Previous Version | Text Only | Print | Product List | Glossary Off
Versions: 1 2 3 4 5 6 7 8 9 10 11 12 13 14 15 16 17 18 19 20 21 22 23 24 25 26 27

000
ASUS44 KLZK 250505
RWRLZK

WEATHER ROUNDUP FOR ARKANSAS
NATIONAL WEATHER SERVICE LITTLE ROCK AR
1200 AM CDT SAT OCT 25 2014

NOTE: "FAIR" INDICATES FEW OR NO CLOUDS BELOW 12,000 FEET WITH NO
SIGNIFICANT WEATHER AND/OR OBSTRUCTIONS TO VISIBILITY.

ARZ001-003-010-029-250600-
NORTHWEST ARKANSAS

CITY           SKY/WX    TMP DP  RH WIND       PRES   REMARKS
FAYETTEVILLE   CLEAR     58  57  97 S5        30.10F
FORT SMITH     CLEAR     62  60  93 CALM      30.09R
HARRISON       CLEAR     60  57  89 S6        30.09F
BENTONVILLE    CLEAR     61  55  82 S5        30.09F
ROGERS         CLEAR     60  57  89 S6        30.10F
SILOAM SPGS    CLEAR     61  54  77 S5        30.10F
HIGHFILL       CLEAR     60  58  92 S5        30.08F
$$

ARZ004-005-016-250600-
NORTH CENTRAL ARKANSAS

CITY           SKY/WX    TMP DP  RH WIND       PRES   REMARKS
BATESVILLE     CLEAR     63  55  77 CALM      30.08S
FLIPPIN        CLEAR     61  54  77 CALM      30.07F
MTN HOME       CLEAR     61  59  93 CALM      30.07S
$$

ARZ040-041-250600-
WEST CENTRAL ARKANSAS

CITY           SKY/WX    TMP DP  RH WIND       PRES   REMARKS
MENA           CLEAR     61  59  94 CALM      30.14R
MOUNT IDA      CLEAR     59  57  93 CALM      30.10R FOG
$$

ARZ009-017-025-026-028-250600-
NORTHEAST ARKANSAS

CITY           SKY/WX    TMP DP  RH WIND       PRES   REMARKS
CORNING        FAIR      59  55  88 SW6       30.06F
JONESBORO      CLEAR     64  56  75 W7        30.07F
NEWPORT        CLEAR     62  56  81 SW8       30.08F
WALNUT RIDGE   CLEAR     57  52  82 S5        30.07S
BLYTHEVILLE    CLEAR     58  56  93 S6        30.08F
$$

ARZ022-023-033-042-044-250600-
CENTRAL ARKANSAS

CITY           SKY/WX    TMP DP  RH WIND       PRES   REMARKS
LITTLE ROCK    PTCLDY    60  55  83 SW5       30.11S
N LITTLE ROCK  PTCLDY    63  58  86 SW6       30.11S
JACKSONVILLE   CLEAR     55  54  95 CALM      30.10F
SEARCY         CLEAR     57  56  96 SW5       30.10F
HOT SPRINGS    CLEAR     59  56  89 CALM      30.12S
RUSSELLVILLE   CLEAR     60  58  92 CALM      30.09S
$$

ARZ036-250600-
EAST ARKANSAS

CITY           SKY/WX    TMP DP  RH WIND       PRES   REMARKS
WEST MEMPHIS   CLEAR     54  53  97 CALM      30.08S
$$

ARZ050-053-066-070-073-250600-
SOUTHWEST ARKANSAS

CITY           SKY/WX    TMP DP  RH WIND       PRES   REMARKS
ARKADELPHIA    FAIR      55  55 100 CALM      30.12F FOG
CAMDEN         CLEAR     52  50  93 CALM      30.13R FOG
TEXARKANA      CLEAR     62  58  86 S3        30.12S
EL DORADO      CLEAR     52  51  97 CALM      30.13S
DE QUEEN       FOG       56  56 100 CALM      30.10S VSB 1/4
$$

ARZ056-057-069-250600-
SOUTHEAST ARKANSAS

CITY           SKY/WX    TMP DP  RH WIND       PRES   REMARKS
PINE BLUFF     CLEAR     56  54  93 CALM      30.12R
STUTTGART      CLEAR     57  52  82 SW7       30.11S
MONTICELLO     CLEAR     58  54  86 CALM      30.11F

$$





USA.gov is the U.S. government's official web portal to all federal, state and local government web resources and services.